Weather reports worldwide

Advertisment
London/Heathrow Intl, United Kingdom (3772): temperature & dewpoint: 09.11.2018 05:00:00 - 15.11.2018 05:00:00 (GMT)London/Heathrow Intl, United Kingdom (3772): wind speed & gusts: 09.11.2018 05:00:00 - 15.11.2018 05:00:00 (GMT)London/Heathrow Intl, United Kingdom (3772): wind direction: 09.11.2018 05:00:00 - 15.11.2018 05:00:00 (GMT)London/Heathrow Intl, United Kingdom (3772): reduced air pressure: 09.11.2018 05:00:00 - 15.11.2018 05:00:00 (GMT)London/Heathrow Intl, United Kingdom (3772): visibility: 09.11.2018 05:00:00 - 15.11.2018 05:00:00 (GMT)London/Heathrow Intl, United Kingdom (3772): sunshine duration: 09.11.2018 05:00:00 - 15.11.2018 05:00:00 (GMT)London/Heathrow Intl, United Kingdom (3772): precipitation: 09.11.2018 05:00:00 - 15.11.2018 05:00:00 (GMT)
Date & Time tt [°C] td [°C] ff [km/h] ff [kn] fx [km/h] fx [kn] dd ppp [hPa] vv [km] sd [min] rr [mm]
15.11.2018 05:00:00 - - - - - - - - - - -
15.11.2018 04:00:00 11,6 11,3 8 4 - - S 1020,4 3,8 0 0,0
15.11.2018 03:00:00 11,6 11,4 8 4 - - SE 1020,2 3,6 0 0,0
15.11.2018 02:00:00 11,4 11,2 11 6 - - ESE 1020,4 3,3 0 0,2
15.11.2018 01:00:00 11,1 10,9 8 4 - - SE 1020,4 3,5 0 0,0
15.11.2018 00:00:00 10,7 10,3 4 2 - - SE 1020,7 4,5 - 0,0
14.11.2018 23:00:00 10,7 10,4 8 4 - - SE 1020,8 5 0 0,0
14.11.2018 22:00:00 10,7 9,9 9 5 - - S 1021,1 6 0 0,0
14.11.2018 21:00:00 10,7 9,7 8 4 - - SE 1021,1 5 0 0,0
14.11.2018 20:00:00 10,6 8,9 8 4 - - SSE 1021,3 10 0 0,0
14.11.2018 19:00:00 10,6 8,3 11 6 - - SE 1021,4 10 0 0,0
14.11.2018 18:00:00 11,5 8,1 13 7 - - S 1021,3 10 0 0,0
14.11.2018 17:00:00 12,3 8,0 9 5 - - SSE 1021,0 10 0 0,0
14.11.2018 16:00:00 13,1 7,4 13 7 - - S 1021,1 10 30 0,0
14.11.2018 15:00:00 14,0 7,1 16 9 - - S 1021,2 10 54 0,0
14.11.2018 14:00:00 14,6 7,5 18 10 - - S 1021,3 10 60 0,0
14.11.2018 13:00:00 13,8 7,8 16 9 - - SSW 1021,9 10 60 0,0
14.11.2018 12:00:00 14,0 8,0 22 12 - - SSW 1022,3 10 60 0,0
14.11.2018 11:00:00 13,4 8,5 21 11 - - SSW 1022,7 10 60 0,0
14.11.2018 10:00:00 12,6 9,2 21 11 - - SSW 1023,0 10 60 0,0
14.11.2018 09:00:00 11,3 9,1 15 8 - - S 1022,8 26 6 0,0
14.11.2018 08:00:00 10,7 8,9 13 7 - - S 1022,9 10 0 0,0
14.11.2018 07:00:00 10,7 8,6 13 7 - - S 1022,5 10 0 0,0
14.11.2018 06:00:00 10,3 8,4 9 5 - - S 1022,4 10 0 0,0
14.11.2018 05:00:00 10,6 9,0 11 6 - - S 1022,4 10 0 0,0
14.11.2018 04:00:00 10,6 9,0 16 9 - - SSW 1022,4 10 0 0,0
14.11.2018 03:00:00 10,4 9,1 13 7 - - S 1022,7 10 0 0,0
14.11.2018 02:00:00 10,7 9,0 15 8 - - S 1023,5 10 0 0,0
14.11.2018 01:00:00 11,1 9,5 11 6 - - S 1024,0 10 0 0,0
14.11.2018 00:00:00 9,4 7,9 5 3 - - SSE 1024,7 10 - 0,0
13.11.2018 23:00:00 10,3 8,4 9 5 - - S 1025,1 10 0 0,0
13.11.2018 22:00:00 10,0 8,3 13 7 - - S 1025,0 10 0 0,0
13.11.2018 21:00:00 10,5 8,6 15 8 - - SSW 1025,3 10 0 0,0
13.11.2018 20:00:00 10,7 8,4 13 7 - - S 1025,1 10 0 0,0
13.11.2018 19:00:00 10,9 8,2 15 8 - - SSW 1024,8 10 0 0,0
13.11.2018 18:00:00 11,3 7,7 15 8 - - S 1024,4 10 0 0,0
13.11.2018 17:00:00 11,8 6,2 13 7 - - SSW 1024,2 10 0 0,0
13.11.2018 16:00:00 12,4 6,0 16 9 - - SW 1023,7 10 18 0,0
13.11.2018 15:00:00 13,0 6,7 15 8 - - SW 1023,3 10 36 0,0
13.11.2018 14:00:00 13,3 6,9 21 11 - - SW 1022,9 10 30 0,0
13.11.2018 13:00:00 13,5 7,6 18 10 - - WSW 1022,7 10 60 0,0
13.11.2018 12:00:00 13,1 7,2 24 13 - - WSW 1022,3 10 60 0,0
13.11.2018 11:00:00 12,9 8,0 24 13 - - WSW 1021,7 10 60 0,0
13.11.2018 10:00:00 11,8 7,7 21 11 - - WSW 1020,9 10 60 0,0
13.11.2018 09:00:00 10,0 7,2 18 10 - - WSW 1020,1 10 18 0,0
13.11.2018 08:00:00 8,6 6,7 18 10 - - SW 1018,8 10 0 0,0
13.11.2018 07:00:00 8,6 6,8 15 8 - - SW 1017,7 10 0 0,0
13.11.2018 06:00:00 7,9 6,1 13 7 - - SSW 1016,7 10 0 0,0
13.11.2018 05:00:00 8,3 6,4 13 7 - - SSW 1015,8 10 0 0,0
13.11.2018 04:00:00 8,7 6,8 15 8 - - SSW 1014,6 10 0 0,0
13.11.2018 03:00:00 9,1 6,7 13 7 - - SW 1014,1 10 0 0,0
13.11.2018 02:00:00 9,5 6,7 13 7 - - SW 1013,5 10 0 0,0
13.11.2018 01:00:00 9,4 5,9 11 6 - - SSW 1012,9 10 0 0,0
13.11.2018 00:00:00 10,3 6,7 16 9 - - SW 1012,6 10 - 0,0
12.11.2018 23:00:00 10,8 8,2 16 9 - - SSW 1012,0 10 0 0,0
12.11.2018 22:00:00 10,3 7,9 18 10 - - S 1011,6 10 0 0,0
12.11.2018 21:00:00 10,7 7,8 15 8 - - S 1011,9 10 0 0,0
12.11.2018 20:00:00 11,2 8,3 15 8 - - S 1011,5 16 0 0,0
12.11.2018 19:00:00 11,0 7,4 18 10 - - S 1011,7 10 0 0,0
12.11.2018 18:00:00 11,0 7,9 15 8 - - S 1011,5 21 0 0,0
12.11.2018 17:00:00 11,6 7,7 22 12 - - S 1011,3 10 0 0,0
12.11.2018 16:00:00 12,3 8,1 21 11 - - SSW 1010,4 18 18 0,0
12.11.2018 15:00:00 13,0 8,3 22 12 - - SSW 1009,9 10 60 0,0
12.11.2018 14:00:00 13,2 8,4 22 12 - - S 1009,8 27 42 0,0
12.11.2018 13:00:00 13,6 8,9 22 12 - - S 1009,4 19 18 0,0
12.11.2018 12:00:00 14,2 9,5 24 13 - - SSW 1009,2 10 60 0,0
12.11.2018 11:00:00 13,1 8,9 15 8 - - SSW 1009,5 10 48 0,0
12.11.2018 10:00:00 11,5 7,7 16 9 - - SSW 1009,4 10 6 0,0
12.11.2018 09:00:00 10,9 10,1 11 6 - - S 1009,2 10 0 0,0
12.11.2018 08:00:00 10,7 10,0 11 6 - - S 1008,6 10 0 0,4
12.11.2018 07:00:00 10,6 9,7 11 6 - - SSW 1007,6 10 0 0,0
12.11.2018 06:00:00 10,3 9,4 11 6 - - S 1007,3 10 0 0,0
12.11.2018 05:00:00 9,7 9,1 9 5 - - SSE 1006,9 12 0 0,0
12.11.2018 04:00:00 9,1 8,3 8 4 - - SSE 1006,6 10 0 0,0
12.11.2018 03:00:00 9,9 8,3 5 3 - - S 1006,6 10 0 0,2
12.11.2018 02:00:00 10,4 8,3 9 5 - - S 1006,8 10 0 0,0
12.11.2018 01:00:00 10,7 8,5 16 9 - - S 1006,4 10 0 0,0
12.11.2018 00:00:00 9,7 8,0 13 7 - - S 1006,4 10 - 0,0
11.11.2018 23:00:00 9,9 8,1 13 7 - - SSE 1006,2 19 0 0,0
11.11.2018 22:00:00 9,4 7,3 13 7 - - SSE 1005,7 10 0 0,0
11.11.2018 21:00:00 9,6 7,0 15 8 - - S 1005,4 10 0 0,0
11.11.2018 20:00:00 9,5 6,8 15 8 - - S 1004,8 10 0 0,0
11.11.2018 19:00:00 10,0 6,6 21 11 - - S 1004,5 10 0 0,0
11.11.2018 18:00:00 10,4 6,4 18 10 - - SSW 1003,4 10 0 0,0
11.11.2018 17:00:00 11,3 7,0 18 10 - - SSW 1003,0 10 0 0,0
11.11.2018 16:00:00 12,1 6,9 18 10 - - SSW 1001,9 10 30 0,0
11.11.2018 15:00:00 13,0 6,8 21 11 - - SW 1001,1 10 60 0,0
11.11.2018 14:00:00 14,1 7,3 24 13 - - SW 1000,3 10 18 0,0
11.11.2018 13:00:00 13,5 6,0 28 15 - - SW 999,8 10 60 0,0
11.11.2018 12:00:00 13,5 7,2 26 14 - - WSW 999,4 10 60 0,0
11.11.2018 11:00:00 12,2 7,0 21 11 48 26 SW 998,8 10 48 0,0
11.11.2018 10:00:00 11,8 7,8 28 15 - - SW 997,6 10 36 0,0
11.11.2018 09:00:00 10,9 8,6 21 11 - - SSW 996,5 10 18 0,0
11.11.2018 08:00:00 10,3 8,0 24 13 - - SSW 995,4 25 0 0,2
11.11.2018 07:00:00 9,8 8,5 13 7 - - S 994,2 10 0 0,8
11.11.2018 06:00:00 9,8 9,5 11 6 - - S 994,3 17 0 3,0
11.11.2018 05:00:00 8,4 8,3 11 6 - - SSE 994,3 8 0 0,0
11.11.2018 04:00:00 6,3 5,7 8 4 - - SE 994,4 2,4 0 0,2
11.11.2018 03:00:00 8,0 7,5 9 5 - - SSE 994,9 10 0 0,0
11.11.2018 02:00:00 8,7 7,9 11 6 - - S 994,9 10 0 0,0
11.11.2018 01:00:00 9,6 8,6 13 7 - - S 994,8 10 0 0,8
11.11.2018 00:00:00 10,0 9,0 11 6 - - S 994,8 10 - 0,2
10.11.2018 23:00:00 10,0 9,4 11 6 - - SSE 994,8 9 0 0,8
10.11.2018 22:00:00 10,0 9,3 13 7 - - S 994,7 8 0 1,2
10.11.2018 21:00:00 9,8 8,9 13 7 - - SSE 994,5 10 0 1,4
10.11.2018 20:00:00 9,8 9,0 15 8 - - SSE 994,9 10 0 0,2
10.11.2018 19:00:00 9,8 8,9 13 7 - - SE 994,8 10 0 2,2
10.11.2018 18:00:00 9,8 9,0 11 6 - - S 994,9 8 0 4,8
10.11.2018 17:00:00 10,0 8,9 16 9 - - S 995,1 9 0 1,4
10.11.2018 16:00:00 10,3 9,0 13 7 - - S 994,7 20 0 1,6
10.11.2018 15:00:00 10,5 9,0 26 14 59 32 SW 994,6 10 0 3,6
10.11.2018 14:00:00 13,9 9,4 22 12 - - SSW 994,2 10 18 0,0
10.11.2018 13:00:00 13,8 8,9 24 13 - - S 994,2 10 36 0,0
10.11.2018 12:00:00 13,9 9,9 22 12 - - SSW 994,7 10 54 0,0
10.11.2018 11:00:00 14,1 10,9 16 9 - - SSW 995,0 10 60 0,0
10.11.2018 10:00:00 12,8 10,3 13 7 - - S 995,0 8 60 0,0
10.11.2018 09:00:00 11,1 9,5 11 6 - - S 995,2 10 18 0,0
10.11.2018 08:00:00 10,0 9,0 15 8 - - S 995,1 8 0 0,0
10.11.2018 07:00:00 9,4 8,5 13 7 - - S 994,4 9 0 0,0
10.11.2018 06:00:00 9,5 8,5 13 7 - - SSW 993,8 10 0 0,0
10.11.2018 05:00:00 9,7 8,7 16 9 - - SSW 993,2 14 0 0,0
10.11.2018 04:00:00 10,8 9,5 18 10 - - SSW 992,6 23 0 0,2
10.11.2018 03:00:00 11,7 10,8 16 9 - - SSW 991,7 10 0 1,0
10.11.2018 02:00:00 11,9 11,0 16 9 - - SSW 991,8 10 0 0,2
10.11.2018 01:00:00 11,6 10,7 22 12 - - SSW 991,4 10 0 0,2
10.11.2018 00:00:00 11,2 10,3 26 14 - - S 991,9 10 - 1,8
09.11.2018 23:00:00 10,7 9,9 26 14 - - S 993,0 7 0 1,4
09.11.2018 22:00:00 10,6 9,6 28 15 57 31 S 994,4 8 0 1,8
09.11.2018 21:00:00 10,9 8,7 35 19 57 31 S 995,4 9 0 0,6
09.11.2018 20:00:00 11,1 9,3 31 17 54 29 SSE 996,5 10 0 0,6
09.11.2018 19:00:00 11,8 8,1 35 19 57 31 SSE 997,5 10 0 0,0
09.11.2018 18:00:00 12,0 6,5 28 15 46 25 SSE 998,9 10 0 0,0
09.11.2018 17:00:00 11,9 7,0 26 14 - - SSE 1000,3 10 0 0,0
09.11.2018 16:00:00 12,1 7,1 26 14 - - S 1001,3 10 0 0,0
09.11.2018 15:00:00 12,7 6,3 28 15 - - S 1002,4 23 6 0,0
09.11.2018 14:00:00 13,6 7,0 26 14 48 26 SSW 1003,0 10 36 0,0
09.11.2018 13:00:00 12,4 10,4 22 12 - - SSW 1003,7 10 0 0,2
09.11.2018 12:00:00 12,9 9,5 26 14 - - S 1004,2 10 6 0,0
09.11.2018 11:00:00 12,6 10,2 21 11 - - SE 1005,0 10 0 0,0
09.11.2018 10:00:00 11,8 9,6 18 10 - - SE 1006,0 10 6 0,0
09.11.2018 09:00:00 10,7 9,3 15 8 - - SE 1007,0 10 6 0,0
09.11.2018 08:00:00 8,9 8,4 13 7 - - E 1007,6 10 0 0,0
09.11.2018 07:00:00 8,4 8,1 9 5 - - E 1008,0 9 0 0,0
09.11.2018 06:00:00 7,5 7,2 13 7 - - E 1008,4 9 0 0,0
09.11.2018 05:00:00 6,7 6,3 11 6 - - E 1009,1 6 0 0,0

tt = temperature
td = dewpoint
ff = wind speed
fx = gusts
dd = wind direction
ppp = reduced air pressure
vv = visibility
sd = sunshine duration
rr = precipitation

Next stations